{"data":{"norad_id":48385,"epoch":"2026-05-24T23:47:07.378368Z","epoch_age_seconds":72934,"freshness":"FRESH","line1":"1 48385U 21038AJ  26144.99105762  .00001364  00000+0  55702-4 0  9994","line2":"2 48385  53.1603 350.5397 0001201  85.1675 274.9464 15.31697117280171","mean_motion":15.31697117,"eccentricity":0.0001201,"inclination_deg":53.1603,"raan_deg":350.5397,"arg_perigee_deg":85.1675,"mean_anomaly_deg":274.9464,"bstar":5.5702e-5,"rev_number":28017,"period_min":94.013364915147,"perigee_km":469.92603815283,"apogee_km":471.57114047138,"semimajor_km":6848.8855893121,"source":"CELESTRAK","updated_at":"2026-05-25T13:38:16.690235Z"}}